THOR ABLESTAR R/B, 893

Orbit data source: Space-Track

THOR ABLESTAR R/B, 893 is space debris in LEO originally from a launch on Tue, 06 Oct 1964 UTC launched from the Air Force Western Test Range (AFWTR). Debris objects in space refer to the collection of defunct objects orbiting the Earth. Examples of debris include non-operational satellites, rocket bodies, and fragments generated from explosions, collisions, or faulty payload assembly.

Loading next visibility...
Identifier
893, 1964-063A
Orbit
LEO
Country
Flag of USUS
Related business
Manufacturer
Aerojet
Mission
Spacecraft
Bus & Motor
ABLESTAR, Unknown motor
Mass
~600 kg wet, 600 kg dry
Launch date (UTC)
1964-10-06 (62 years ago)
Launch vehicle
Unknown
Launch site
Air Force Western Test Range (AFWTR)
Object type
Payload
Rocket body
Debris
Shape & HBR
Unknown
Radar Cross Section
Large (>1 m²)

Expand to show TLE details & history
Last TLE update: 11 hours ago

TLE from 11 hours ago
0 THOR ABLESTAR R/B
1 00893U 64063A   26127.28922683  .00000039  00000-0  42732-4 0  9991
2 00893  90.2316  74.2195 0025237 347.4337 126.2321 13.56317968 46434
Epoch: 2026-05-07T06:56Z
TLE epoch observation values (Epoch: 2026-05-07T06:56:29.198Z)
Latitude
66.17974°
Longitude
-74.51774°
Altitude
1,071.743 km
Speed
7.317 km/s
True Right ascension
16h 58m 57s
True Declination
66° 03' 28"
Sunlit
Object was in daylight at epoch
Visualization orbit readout
Latitude
Unknown
Longitude
Unknown
Altitude
Unknown
Speed
Unknown
Apparent Right ascension
Unknown
Apparent Declination
Unknown
Sunlit
N/A
Visualization observer readout
Local Sidereal Time
02:22:10
Azimuth
Unknown
Elevation
Unknown
Doppler factor
Unknown
Orbital elements
Apogee altitude
1,064.881 km
Perigee altitude
1,027.408 km
Semi-major axis
7,424.281 km
Eccentricity
0.00252
Inclination
90.2316°
RAAN
74.2195°
Arg. of periapsis
347.4337°
True anomaly
126.46494°
Mean anomaly
126.2321°
Eccentric anomaly
126.34856°
Mean motion
3.39283 °/min
Orbital period
106.11 mins
BSTAR
0.000042732
Loading maneuver chart data...
Computing Atmospheric mass density...
Loading historical data...
Loading historical data...
Loading historical data...
Loading historical data...
Loading historical data...
Loading historical data...
Loading historical data...
Other satellites on launch #63 in the year 1964 (1964-10-06 UTC)

Documentation

Showing up to 5 results
|